Location: Copper Breaks State Park
(34.1132°N, 99.7492°W)
Time: 22:34:55
(UTC-05:00)

Amateur Radio Satellites - All Passes

Search period start: 27 June 2017 22:04
Search period end: 28 June 2017 22:04
Location: Copper Breaks State Park, 34.1132°N, 99.7492°W

Satellite Date Start Highest point End Downlink Frequencies (MHz)
Time Altitude Azimuth
DELFI C3 27 Jun 22:11:32 22:15:11 39° 74° (ENE) 22:18:50 145.870
STRAND 1 27 Jun 22:12:19 22:16:11 22° 293° (WNW) 22:20:03 437.568
FO-29 27 Jun 22:13:26 22:19:31 24° 92° (E) 22:25:23 435.910
NO-84 27 Jun 22:15:02 22:18:32 34° 319° (NW) 22:22:18 435.350 FM
BEESAT 2 27 Jun 22:18:57 22:22:43 41° 302° (WNW) 22:26:33 435.950
M-CUBED/EXP-1 PRIME 27 Jun 22:18:58 22:20:35 12° 100° (E) 22:22:14 437.505
HO-68 27 Jun 22:19:26 22:20:44 10° 270° (W) 22:22:03 435.675
SO-50 27 Jun 22:26:29 22:27:28 11° 45° (NE) 22:28:28 436.795
EO-88 27 Jun 22:33:05 22:36:37 47° 75° (ENE) 22:40:09 145.990 - 145.960
YUBILEINY 27 Jun 22:36:25 22:45:07 69° 92° (E) 22:53:52 435.215
AO-73 27 Jun 22:41:02 22:43:56 17° 267° (W) 22:46:53 145.935
PRISM 27 Jun 22:50:54 22:54:03 21° 96° (E) 22:57:12 437.425
UNISAT 6 27 Jun 22:51:09 22:54:52 24° 95° (E) 22:58:30 437.425
Oscar 11 27 Jun 23:07:39 23:08:16 10° 268° (W) 23:08:53 .
RS-15 27 Jun 23:13:19 23:24:29 40° 312° (NW) 23:35:53 29.354- 29.394
PCSat 27 Jun 23:20:01 23:24:06 22° 254° (WSW) 23:28:08 145.827
TIGRISAT 27 Jun 23:44:04 23:48:43 89° 283° (WNW) 23:53:13 435.000
DELFI C3 27 Jun 23:48:52 23:50:05 11° 267° (W) 23:51:19 145.870
M-CUBED/EXP-1 PRIME 27 Jun 23:51:23 23:55:03 42° 290° (WNW) 23:58:58 437.505
FO-29 27 Jun 23:57:06 00:04:51 63° 288° (WNW) 00:12:20 435.910
SO-50 28 Jun 00:03:57 00:08:29 85° 242° (WSW) 00:13:03 436.795
SPROUT 28 Jun 00:05:15 00:05:55 10° 65° (ENE) 00:06:35 437.525
ESTCUBE 1 28 Jun 00:09:55 00:14:19 56° 75° (ENE) 00:18:43 437.505/2401.250
LO-87 28 Jun 00:20:39 00:24:06 49° 260° (W) 00:27:34 145.935 - 145.965
PRISM 28 Jun 00:25:54 00:29:14 24° 289° (WNW) 00:32:34 437.425
UNISAT 6 28 Jun 00:27:37 00:31:28 26° 290° (WNW) 00:35:13 437.425
YUBILEINY 28 Jun 00:36:12 00:42:35 22° 290° (WNW) 00:49:03 435.215
POLYITAN 1 28 Jun 00:44:07 00:47:31 23° 96° (E) 00:50:54 437.675
QB50P2 28 Jun 00:54:43 00:58:37 34° 98° (E) 01:02:28 145.880/145.840
AIST 2D 28 Jun 01:13:50 01:17:12 48° 285° (WNW) 01:20:33 435.315
EO-79 28 Jun 01:17:59 01:22:13 61° 100° (E) 01:26:25 145.935-145.965
50 SAT 28 Jun 01:19:12 01:22:05 27° 73° (ENE) 01:25:00 437.505
DUCHIFAT 1 28 Jun 01:28:43 01:32:57 65° 101° (E) 01:37:08 145.980
RS-15 28 Jun 01:36:00 01:42:01 14° 344° (NNW) 01:48:02 29.354- 29.394
VELOX 1 28 Jun 01:36:18 01:40:38 65° 258° (WSW) 01:45:00 145.980
SPROUT 28 Jun 01:37:05 01:41:16 57° 260° (W) 01:45:30 437.525
NANOSAT C BR1 28 Jun 01:38:44 01:43:00 82° 281° (W) 01:47:13 145.865
FO-29 28 Jun 01:46:39 01:48:17 11° 305° (NW) 01:49:56 435.910
DX 1 28 Jun 01:47:17 01:51:26 48° 74° (ENE) 01:55:36 434.975-435.025
ESTCUBE 1 28 Jun 01:50:34 01:51:23 10° 268° (W) 01:52:13 437.505/2401.250
UKube-1 28 Jun 01:58:55 02:02:58 43° 73° (ENE) 02:07:02 .
POLYITAN 1 28 Jun 02:19:45 02:23:11 24° 290° (WNW) 02:26:35 437.675
BUGSAT 1 28 Jun 02:27:52 02:32:08 88° 283° (WNW) 02:36:20 437.445
QB50P2 28 Jun 02:31:23 02:34:05 17° 292° (WNW) 02:36:46 145.880/145.840
ITUPSAT 1 28 Jun 02:45:35 02:47:42 13° 65° (ENE) 02:49:50 437.325
Gurwin Techsat 1B 28 Jun 02:48:13 02:52:49 29° 97° (E) 02:57:24 435.225
BEESAT 28 Jun 02:52:53 02:55:44 16° 66° (ENE) 02:58:36 436.000
50 SAT 28 Jun 02:53:47 02:54:54 11° 266° (W) 02:56:02 437.505
Oscar 19 28 Jun 03:11:52 03:17:01 87° 105° (ESE) 03:22:08 437.125/150
DX 1 28 Jun 03:26:25 03:27:50 11° 267° (W) 03:29:14 434.975-435.025
MOZHAYETS 4 28 Jun 03:35:22 03:39:16 27° 70° (ENE) 03:43:09
UKube-1 28 Jun 03:37:14 03:39:09 13° 267° (W) 03:41:05 .
RS-15 28 Jun 03:55:09 04:02:17 17° 23° (NNE) 04:09:16 29.354- 29.394
ITAMSAT 1 28 Jun 03:57:10 04:00:06 15° 93° (E) 04:03:01 435.822/435.867
ITUPSAT 1 28 Jun 04:20:15 04:24:58 58° 259° (W) 04:29:44 437.325
CUBESAT XI-V 28 Jun 04:24:58 04:27:48 16° 67° (ENE) 04:30:38 437.345
Gurwin Techsat 1B 28 Jun 04:28:07 04:32:38 29° 291° (WNW) 04:37:08 435.225
BEESAT 28 Jun 04:28:30 04:33:05 46° 260° (W) 04:37:41 436.000
KKS-1 28 Jun 04:49:25 04:52:36 20° 68° (ENE) 04:55:48 437.445
NO-84 28 Jun 04:51:32 04:55:30 32° 41° (NE) 04:59:22 435.350 FM
AO-7 28 Jun 05:08:21 05:16:44 70° 105° (ESE) 05:25:02 .
STARS 28 Jun 05:12:07 05:14:23 14° 66° (ENE) 05:16:41 437.465
MOZHAYETS 4 28 Jun 05:12:34 05:16:19 24° 264° (W) 05:20:04
ITAMSAT 1 28 Jun 05:34:44 05:39:49 53° 287° (WNW) 05:44:53 435.822/435.867
BEESAT 3 28 Jun 05:34:58 05:37:51 19° 52° (NE) 05:40:42 437.485
AO-85 28 Jun 05:38:47 05:42:42 38° 58° (ENE) 05:46:51 145.980
CUBESAT XI-V 28 Jun 06:00:26 06:04:48 41° 261° (W) 06:09:11 437.345
RS-15 28 Jun 06:07:03 06:18:46 51° 52° (NE) 06:29:50 29.354- 29.394
KKS-1 28 Jun 06:25:01 06:28:54 31° 262° (W) 06:32:50 437.445
NO-84 28 Jun 06:29:15 06:33:00 29° 236° (SW) 06:36:37 435.350 FM
BEESAT 2 28 Jun 06:39:56 06:43:37 32° 56° (NE) 06:47:15 435.950
XW-2B 28 Jun 06:42:47 06:43:31 10° 92° (E) 06:44:15 145.730 - 145.750
LilacSat-2 28 Jun 06:44:42 06:46:22 12° 93° (E) 06:48:02 437.200
STARS 28 Jun 06:46:09 06:50:18 43° 260° (W) 06:54:30 437.465
XW-2C 28 Jun 06:56:45 06:59:18 17° 95° (E) 07:01:49 145.795 - 145.815
CUTE-I 28 Jun 06:59:42 07:03:39 21° 95° (E) 07:07:36 437.470
AO-7 28 Jun 07:02:28 07:08:42 24° 302° (WNW) 07:14:56 .
KAITUO 1B 28 Jun 07:03:46 07:06:04 16° 94° (E) 07:08:20 145.475/437.950
BEESAT 3 28 Jun 07:11:56 07:15:27 30° 247° (WSW) 07:18:54 437.485
DOVE 4 28 Jun 07:18:35 07:23:38 90° 283° (WNW) 07:28:54 437.250
AO-85 28 Jun 07:20:05 07:22:50 17° 249° (WSW) 07:25:41 145.980
Tancredo 1 28 Jun 07:21:20 07:24:19 68° 134° (SE) 07:27:19 437.200
NUDT-PHONESAT 28 Jun 07:34:11 07:37:40 40° 99° (E) 07:41:07 437.300
STRAND 1 28 Jun 07:44:43 07:49:23 36° 71° (ENE) 07:54:05 437.568
HO-68 28 Jun 07:58:00 08:03:32 24° 95° (E) 08:09:02 435.675
XW-2F 28 Jun 07:58:56 08:02:39 65° 283° (WNW) 08:06:19 145.980 - 146.000
XW-2D 28 Jun 08:05:08 08:08:46 48° 285° (WNW) 08:12:21 145.860 - 145.880
O/OREOS (USA 219) 28 Jun 08:12:23 08:16:52 88° 73° (ENE) 08:21:20 437.305
SEEDS 28 Jun 08:12:48 08:14:40 13° 93° (E) 08:16:30 437.485
XW-2B 28 Jun 08:14:21 08:17:50 37° 286° (WNW) 08:21:18 145.730 - 145.750
ISS 28 Jun 08:15:36 08:18:50 65° 318° (NW) 08:22:06 437.550
LilacSat-2 28 Jun 08:17:20 08:20:43 32° 287° (WNW) 08:24:05 437.200
BEESAT 2 28 Jun 08:18:27 08:21:04 17° 251° (WSW) 08:23:41 435.950
RS-15 28 Jun 08:20:02 08:30:56 44° 253° (WSW) 08:41:21 29.354- 29.394
XW-2C 28 Jun 08:30:24 08:33:25 23° 288° (WNW) 08:36:25 145.795 - 145.815
CUTE 1.7 + AOD 2 28 Jun 08:34:15 08:38:11 40° 98° (E) 08:42:08 437.475
KAITUO 1B 28 Jun 08:36:59 08:40:01 25° 288° (WNW) 08:43:03 145.475/437.950
CUTE-I 28 Jun 08:38:46 08:43:48 41° 289° (WNW) 08:48:48 437.470
YUBILEINY 28 Jun 08:52:12 08:59:30 28° 72° (ENE) 09:06:42 435.215
AAUSAT CUBESAT 2 28 Jun 08:53:51 08:56:39 18° 94° (E) 08:59:27 437.432
Tancredo 1 28 Jun 08:58:58 09:00:11 12° 331° (NNW) 09:01:24 437.200
XW-2A 28 Jun 09:10:18 09:13:43 89° 278° (W) 09:17:04 145.665 - 145.685
NUDT-PHONESAT 28 Jun 09:10:45 09:11:08 10° 293° (WNW) 09:11:31 437.300
CUBEBUG 2 28 Jun 09:16:27 09:21:06 64° 101° (E) 09:25:33 437.445
Oscar 11 28 Jun 09:20:19 09:22:18 13° 93° (E) 09:24:17 .
STRAND 1 28 Jun 09:24:42 09:28:35 22° 265° (W) 09:32:30 437.568
ZACube-1 28 Jun 09:32:15 09:36:03 28° 96° (E) 09:39:44 437.345
UWE-3 28 Jun 09:43:45 09:48:18 77° 102° (ESE) 09:52:41 435.000/436.395/437.385
HO-68 28 Jun 09:44:33 09:51:30 55° 290° (WNW) 09:58:25 435.675
SEEDS 28 Jun 09:46:35 09:50:28 40° 286° (WNW) 09:54:21 437.485
UNISAT 6 28 Jun 09:47:11 09:49:42 15° 66° (ENE) 09:52:14 437.425
FO-29 28 Jun 10:05:00 10:10:39 41° 68° (ENE) 10:16:59 435.910
CUTE 1.7 + AOD 2 28 Jun 10:11:32 10:13:38 14° 292° (WNW) 10:15:44 437.475
AAUSAT CUBESAT 2 28 Jun 10:28:33 10:32:05 28° 288° (WNW) 10:35:37 437.432
AO-73 28 Jun 10:31:01 10:35:20 61° 286° (WNW) 10:39:33 145.935
M-CUBED/EXP-1 PRIME 28 Jun 10:34:21 10:37:36 59° 254° (WSW) 10:40:49 437.505
TIGRISAT 28 Jun 10:38:25 10:42:50 49° 74° (ENE) 10:47:21 435.000
YUBILEINY 28 Jun 10:48:06 10:56:36 55° 270° (W) 11:05:03 435.215
Oscar 11 28 Jun 10:54:32 10:58:35 42° 286° (WNW) 11:02:38 .
CUBEBUG 2 28 Jun 10:55:57 10:57:02 11° 296° (WNW) 10:58:07 437.445
ZACube-1 28 Jun 11:08:51 11:12:06 20° 291° (WNW) 11:15:18 437.345
PRISM 28 Jun 11:10:28 11:14:26 56° 259° (W) 11:18:26 437.425
UNISAT 6 28 Jun 11:21:30 11:25:55 47° 261° (W) 11:30:27 437.425
DELFI C3 28 Jun 11:26:17 11:30:14 71° 284° (WNW) 11:34:10 145.870
POLYITAN 1 28 Jun 11:34:56 11:36:18 11° 66° (ENE) 11:37:40 437.675
EO-88 28 Jun 11:38:47 11:42:25 72° 283° (WNW) 11:46:01 145.990 - 145.960
AIST 2D 28 Jun 11:44:24 11:47:29 28° 73° (ENE) 11:50:33 435.315
QB50P2 28 Jun 11:44:30 11:47:12 17° 68° (ENE) 11:49:54 145.880/145.840
FO-29 28 Jun 11:50:47 11:55:49 27° 267° (W) 12:01:25 435.910
LO-87 28 Jun 11:52:07 11:54:23 16° 95° (E) 11:56:38 145.935 - 145.965
EO-79 28 Jun 12:06:49 12:10:24 27° 71° (ENE) 12:14:01 145.935-145.965
ESTCUBE 1 28 Jun 12:07:18 12:10:01 16° 94° (E) 12:12:44 437.505/2401.250
PCSat 28 Jun 12:13:16 12:18:40 83° 114° (ESE) 12:24:07 145.827
DUCHIFAT 1 28 Jun 12:16:52 12:20:29 28° 71° (ENE) 12:24:08 145.980
TIGRISAT 28 Jun 12:17:38 12:19:45 13° 268° (W) 12:21:53 435.000
JUGNU 28 Jun 12:26:23 12:29:44 15° 169° (SSE) 12:33:04 437.505
NANOSAT C BR1 28 Jun 12:26:45 12:30:45 42° 74° (ENE) 12:34:47 145.865
POLYITAN 1 28 Jun 13:07:25 13:11:34 52° 260° (W) 13:15:46 437.675
BUGSAT 1 28 Jun 13:13:39 13:17:27 36° 73° (ENE) 13:21:18 437.445
QB50P2 28 Jun 13:18:48 13:22:41 34° 262° (W) 13:26:34 145.880/145.840
AIST 2D 28 Jun 13:19:07 13:20:42 13° 267° (W) 13:22:17 435.315
LO-87 28 Jun 13:24:46 13:27:46 24° 288° (WNW) 13:30:45 145.935 - 145.965
SPROUT 28 Jun 13:26:36 13:30:25 30° 97° (E) 13:34:12 437.525
VELOX 1 28 Jun 13:30:09 13:34:04 30° 98° (E) 13:37:58 145.980
DX 1 28 Jun 13:41:26 13:42:44 11° 93° (E) 13:44:02 434.975-435.025
ESTCUBE 1 28 Jun 13:42:47 13:46:55 38° 287° (WNW) 13:51:03 437.505/2401.250
EO-79 28 Jun 13:42:59 13:46:07 20° 265° (W) 13:49:16 145.935-145.965
Tancredo 1 28 Jun 13:49:17 13:51:02 14° 31° (NNE) 13:52:47 437.200
DUCHIFAT 1 28 Jun 13:53:06 13:56:07 19° 265° (W) 13:59:09 145.980
PCSat 28 Jun 14:00:10 14:02:43 13° 312° (NW) 14:05:16 145.827
NANOSAT C BR1 28 Jun 14:04:46 14:06:37 13° 267° (W) 14:08:28 145.865
Gurwin Techsat 1B 28 Jun 14:05:37 14:10:19 33° 70° (ENE) 14:15:01 435.225
JUGNU 28 Jun 14:13:49 14:18:03 20° 179° (S) 14:22:18 437.505
SO-50 28 Jun 14:14:17 14:18:50 77° 117° (ESE) 14:23:22 436.795
AO-7 28 Jun 14:16:44 14:19:51 13° 51° (NE) 14:22:58 .
50 SAT 28 Jun 14:17:10 14:20:29 48° 100° (E) 14:23:47 437.505
SRMSAT 28 Jun 14:18:54 14:20:48 11° 164° (SSE) 14:22:41 437.500
Oscar 19 28 Jun 14:24:48 14:29:57 86° 78° (ENE) 14:35:07 437.125/150
ISS 28 Jun 14:46:41 14:49:27 24° 35° (NE) 14:52:13 437.550
BUGSAT 1 28 Jun 14:50:41 14:52:54 14° 267° (W) 14:55:08 437.445
SPROUT 28 Jun 15:03:04 15:06:03 19° 291° (WNW) 15:09:02 437.525
VELOX 1 28 Jun 15:07:02 15:10:17 20° 291° (WNW) 15:13:31 145.980
ITAMSAT 1 28 Jun 15:11:39 15:14:56 17° 65° (ENE) 15:18:11 435.822/435.867
DX 1 28 Jun 15:14:54 15:19:08 50° 286° (WNW) 15:23:22 434.975-435.025
Tancredo 1 28 Jun 15:23:51 15:26:48 48° 226° (SW) 15:29:43 437.200
UKube-1 28 Jun 15:25:06 15:29:21 59° 286° (WNW) 15:33:36 .
Gurwin Techsat 1B 28 Jun 15:45:53 15:50:13 25° 264° (W) 15:54:35 435.225
SO-50 28 Jun 15:58:12 15:59:47 12° 314° (NW) 16:01:22 436.795
JUGNU 28 Jun 16:02:39 16:06:24 17° 189° (S) 16:10:10 437.505
AO-7 28 Jun 16:02:51 16:11:04 68° 69° (ENE) 16:19:20 .
SRMSAT 28 Jun 16:05:12 16:09:15 19° 174° (S) 16:13:18 437.500
ISS 28 Jun 16:23:05 16:25:53 26° 230° (SW) 16:28:40 437.550
ITUPSAT 1 28 Jun 16:24:26 16:29:04 47° 100° (E) 16:33:38 437.325
BEESAT 28 Jun 16:32:03 16:36:46 59° 101° (E) 16:41:27 436.000
ITAMSAT 1 28 Jun 16:48:53 16:53:54 50° 259° (W) 16:58:59 435.822/435.867
MOZHAYETS 4 28 Jun 17:10:11 17:14:46 78° 284° (WNW) 17:19:18
SRMSAT 28 Jun 17:53:36 17:57:46 20° 184° (S) 18:01:55 437.500
AO-7 28 Jun 17:58:16 18:04:18 22° 265° (W) 18:10:23 .
CUBESAT XI-V 28 Jun 18:00:14 18:04:48 63° 101° (E) 18:09:21 437.345
ITUPSAT 1 28 Jun 18:03:41 18:06:27 15° 294° (WNW) 18:09:12 437.325
NUDT-PHONESAT 28 Jun 18:11:49 18:13:03 11° 68° (ENE) 18:14:17 437.300
BEESAT 28 Jun 18:12:01 18:13:58 12° 296° (WNW) 18:15:56 436.000
CUTE-I 28 Jun 18:17:54 18:22:06 24° 67° (ENE) 18:26:19 437.470
KKS-1 28 Jun 18:18:51 18:23:18 65° 101° (E) 18:27:45 437.445
DOVE 4 28 Jun 18:20:47 18:24:49 55° 75° (ENE) 18:29:01 437.250
HO-68 28 Jun 18:26:10 18:28:46 12° 56° (NE) 18:31:23 435.675
XW-2F 28 Jun 18:36:00 18:39:23 31° 73° (ENE) 18:42:46 145.980 - 146.000
STARS 28 Jun 18:38:54 18:43:07 42° 99° (E) 18:47:19 437.465
XW-2D 28 Jun 18:42:14 18:45:51 41° 75° (ENE) 18:49:29 145.860 - 145.880
XW-2B 28 Jun 18:51:12 18:54:56 52° 76° (ENE) 18:58:41 145.730 - 145.750
LilacSat-2 28 Jun 18:54:38 18:58:27 64° 76° (ENE) 19:02:17 437.200
XW-2C 28 Jun 19:06:46 19:10:36 90° 71° (ENE) 19:14:27 145.795 - 145.815
KAITUO 1B 28 Jun 19:12:10 19:15:56 79° 78° (ENE) 19:19:43 145.475/437.950
CUTE 1.7 + AOD 2 28 Jun 19:23:56 19:26:51 18° 69° (ENE) 19:29:46 437.475
XW-2A 28 Jun 19:38:53 19:41:00 16° 70° (ENE) 19:43:08 145.665 - 145.685
CUBESAT XI-V 28 Jun 19:40:30 19:41:35 11° 295° (WNW) 19:42:39 437.345
NUDT-PHONESAT 28 Jun 19:43:02 19:46:33 37° 262° (W) 19:50:04 437.300
SRMSAT 28 Jun 19:43:33 19:46:14 13° 194° (SSW) 19:48:53 437.500
AO-85 28 Jun 19:50:14 19:53:49 28° 113° (ESE) 19:57:15 145.980
CUTE-I 28 Jun 19:57:03 20:01:53 36° 262° (W) 20:06:47 437.470
KKS-1 28 Jun 19:58:47 19:59:15 10° 296° (WNW) 19:59:43 437.445
STRAND 1 28 Jun 19:59:58 20:03:14 17° 94° (E) 20:06:28 437.568
NO-84 28 Jun 20:06:33 20:08:46 15° 120° (ESE) 20:11:05 435.350 FM
HO-68 28 Jun 20:08:08 20:15:18 77° 73° (ENE) 20:22:31 435.675
CUBEBUG 2 28 Jun 20:10:26 20:14:33 34° 72° (ENE) 20:18:47 437.445
XW-2F 28 Jun 20:11:35 20:13:33 14° 266° (W) 20:15:31 145.980 - 146.000
STARS 28 Jun 20:16:35 20:19:04 15° 293° (WNW) 20:21:31 437.465
XW-2D 28 Jun 20:19:44 20:20:11 10° 268° (W) 20:20:38 145.860 - 145.880
RS-15 28 Jun 20:24:33 20:35:41 46° 107° (ESE) 20:47:05 29.354- 29.394
ZACube-1 28 Jun 20:25:01 20:27:44 16° 67° (ENE) 20:30:27 437.345
BEESAT 2 28 Jun 20:29:12 20:31:10 14° 108° (ESE) 20:33:10 435.950
SEEDS 28 Jun 20:33:44 20:37:55 81° 75° (ENE) 20:42:07 437.485
UWE-3 28 Jun 20:36:26 20:40:41 38° 73° (ENE) 20:45:01 435.000/436.395/437.385
O/OREOS (USA 219) 28 Jun 20:43:29 20:46:15 16° 100° (E) 20:49:00 437.305
BEESAT 3 28 Jun 20:57:12 21:01:09 77° 299° (WNW) 21:05:10 437.485
CUTE 1.7 + AOD 2 28 Jun 20:58:42 21:02:25 30° 263° (W) 21:06:10 437.475
PCSat 28 Jun 21:05:18 21:10:03 30° 56° (ENE) 21:14:46 145.827
XW-2A 28 Jun 21:10:49 21:13:32 22° 264° (W) 21:16:15 145.665 - 145.685
AAUSAT CUBESAT 2 28 Jun 21:13:54 21:18:01 75° 259° (W) 21:22:08 437.432
AO-73 28 Jun 21:21:48 21:26:17 62° 75° (ENE) 21:30:49 145.935
AO-85 28 Jun 21:31:08 21:34:09 20° 307° (NW) 21:37:06 145.980
STRAND 1 28 Jun 21:37:40 21:42:35 46° 288° (WNW) 21:47:28 437.568
NO-84 28 Jun 21:42:19 21:45:54 43° 317° (NW) 21:49:47 435.350 FM
Oscar 11 28 Jun 21:44:48 21:49:09 88° 77° (ENE) 21:53:30 .
CUBEBUG 2 28 Jun 21:47:53 21:51:11 19° 266° (W) 21:54:34 437.445
YUBILEINY 28 Jun 21:48:10 21:55:55 36° 86° (E) 22:03:42 435.215
